| time (UTC) | temp F | wind direction | speed knots | gust knots | rain 1hr in | rain 24hr in | rain mn in | humidity % | barometer mb |
| 20260507095418 | 54 | 315 | 3.5 | 5.2 | 0.00 | 0.00 | 0.00 | 33 | 1016.8 |
| 20260507095157 | 54 | 315 | 3.5 | 5.2 | 0.00 | 0.00 | 0.00 | 33 | 1016.8 |
| 20260507093002 | 53 | 334 | 1.7 | 7.0 | 0.00 | 0.00 | 0.00 | 35 | 1016.8 |
| 20260507091453 | 54 | 149 | 2.6 | 7.8 | 0.00 | 0.00 | 0.00 | 36 | 1016.9 |
| 20260507090645 | 53 | 323 | 1.7 | 7.8 | 0.00 | 0.00 | 0.00 | 38 | 1017.0 |
| 20260507090153 | 53 | 323 | 1.7 | 7.8 | 0.00 | 0.00 | 0.00 | 38 | 1017.0 |
| 20260507084431 | 52 | 214 | 1.7 | 6.1 | 0.00 | 0.00 | 0.00 | 36 | 1017.1 |
| 20260507082930 | 51 | 206 | 2.6 | 7.0 | 0.00 | 0.00 | 0.00 | 36 | 1017.1 |
| 20260507082127 | 51 | 292 | 1.7 | 9.6 | 0.00 | 0.00 | 0.00 | 41 | 1017.0 |
| 20260507081429 | 51 | 292 | 1.7 | 9.6 | 0.00 | 0.00 | 0.00 | 41 | 1017.0 |
| 20260507081328 | 49 | 285 | 4.3 | 8.7 | 0.00 | 0.00 | 0.00 | 41 | 1017.0 |
| 20260507075928 | 49 | 285 | 4.3 | 8.7 | 0.00 | 0.00 | 0.00 | 41 | 1017.0 |
| 20260507074402 | 49 | 318 | 1.7 | 9.6 | 0.00 | 0.00 | 0.00 | 44 | 1016.9 |
| 20260507073600 | 48 | 269 | 4.3 | 7.8 | 0.00 | 0.00 | 0.00 | 44 | 1016.8 |
| 20260507073115 | 48 | 269 | 4.3 | 7.8 | 0.00 | 0.00 | 0.00 | 44 | 1016.8 |
| 20260507071354 | 47 | 226 | 1.7 | 8.7 | 0.00 | 0.00 | 0.00 | 45 | 1016.9 |
| 20260507065830 | 47 | 274 | 1.7 | 10.4 | 0.00 | 0.00 | 0.00 | 45 | 1016.9 |
| 20260507064330 | 46 | 231 | 4.3 | 7.0 | 0.00 | 0.00 | 0.00 | 47 | 1016.9 |
| 20260507063522 | 44 | 178 | 1.7 | 5.2 | 0.00 | 0.00 | 0.00 | 54 | 1017.0 |
| 20260507062826 | 44 | 178 | 1.7 | 5.2 | 0.00 | 0.00 | 0.00 | 54 | 1017.0 |
| 20260507062715 | 42 | 182 | 0.9 | 4.3 | 0.00 | 0.00 | 0.00 | 57 | 1016.9 |
| 20260507061519 | 42 | 182 | 0.9 | 4.3 | 0.00 | 0.00 | 0.00 | 57 | 1016.9 |
| 20260507061143 | 40 | 315 | 0.0 | 2.6 | 0.00 | 0.00 | 0.00 | 61 | 1016.9 |
| 20260507055801 | 40 | 315 | 0.0 | 2.6 | 0.00 | 0.00 | 0.00 | 61 | 1016.9 |
| 20260507054303 | 39 | 10 | 0.9 | 3.5 | 0.00 | 0.00 | 0.00 | 65 | 1016.9 |
| 20260507052751 | 38 | 273 | 0.9 | 3.5 | 0.00 | 0.00 | 0.00 | 63 | 1016.9 |
| 20260507051923 | 36 | 321 | 0.0 | 4.3 | 0.00 | 0.00 | 0.00 | 67 | 1016.8 |
| 20260507051229 | 36 | 321 | 0.0 | 4.3 | 0.00 | 0.00 | 0.00 | 67 | 1016.8 |
| 20260507045729 | 34 | 297 | 3.5 | 5.2 | 0.00 | 0.00 | 0.00 | 71 | 1016.6 |
| 20260507044202 | 33 | 238 | 2.6 | 5.2 | 0.00 | 0.00 | 0.00 | 69 | 1016.4 |
| 20260507043423 | 31 | 74 | 0.0 | 1.7 | 0.00 | 0.00 | 0.00 | 79 | 1016.4 |
| 20260507042701 | 31 | 74 | 0.0 | 1.7 | 0.00 | 0.00 | 0.00 | 79 | 1016.4 |
| 20260507041202 | 30 | 37 | 0.0 | 1.7 | 0.00 | 0.00 | 0.00 | 79 | 1016.4 |
| 20260507035701 | 30 | 212 | 0.0 | 1.7 | 0.00 | 0.00 | 0.00 | 79 | 1016.2 |
| 20260507034858 | 30 | 34 | 0.0 | 1.7 | 0.00 | 0.00 | 0.00 | 78 | 1016.1 |
| 20260507034203 | 30 | 34 | 0.0 | 1.7 | 0.00 | 0.00 | 0.00 | 78 | 1016.1 |
| 20260507032702 | 30 | 236 | 0.9 | 1.7 | 0.00 | 0.00 | 0.00 | 80 | 1016.0 |
| 20260507031903 | 29 | 202 | 0.0 | 0.9 | 0.00 | 0.00 | 0.00 | 79 | 1015.9 |
| 20260507031412 | 29 | 202 | 0.0 | 0.9 | 0.00 | 0.00 | 0.00 | 79 | 1015.9 |
| 20260507030413 | 30 | 340 | 0.0 | 1.7 | 0.00 | 0.00 | 0.00 | 77 | 1015.9 |
| 20260507025913 | 30 | 340 | 0.0 | 1.7 | 0.00 | 0.00 | 0.00 | 77 | 1015.9 |
| 20260507024855 | 30 | 310 | 0.0 | 1.7 | 0.00 | 0.00 | 0.00 | 78 | 1015.7 |
| 20260507024146 | 30 | 310 | 0.0 | 1.7 | 0.00 | 0.00 | 0.00 | 78 | 1015.7 |
| 20260507022630 | 31 | 44 | 0.0 | 1.7 | 0.00 | 0.00 | 0.00 | 78 | 1015.6 |
| 20260507021101 | 32 | 117 | 0.9 | 1.7 | 0.00 | 0.00 | 0.00 | 75 | 1015.4 |
| 20260507015602 | 32 | 222 | 0.0 | 2.6 | 0.00 | 0.00 | 0.00 | 76 | 1015.3 |
| 20260507014059 | 32 | 300 | 0.0 | 0.9 | 0.00 | 0.00 | 0.00 | 76 | 1015.3 |
| 20260507013237 | 33 | 152 | 0.0 | 1.7 | 0.00 | 0.00 | 0.00 | 73 | 1015.3 |
| 20260507012529 | 33 | 152 | 0.0 | 1.7 | 0.00 | 0.00 | 0.00 | 73 | 1015.3 |
| 20260507011725 | 32 | 358 | 1.7 | 1.7 | 0.00 | 0.00 | 0.00 | 74 | 1015.1 |
| 20260507005529 | 33 | 180 | 0.0 | 1.7 | 0.00 | 0.00 | 0.00 | 71 | 1014.9 |
| 20260507004031 | 34 | 240 | 0.0 | 1.7 | 0.00 | 0.00 | 0.00 | 70 | 1014.9 |
| 20260507002531 | 34 | 193 | 0.0 | 2.6 | 0.00 | 0.00 | 0.00 | 72 | 1014.7 |
| 20260507001030 | 36 | 224 | 0.0 | 2.6 | 0.00 | 0.00 | 0.00 | 62 | 1014.6 |
| 20260506235529 | 37 | 328 | 0.0 | 3.5 | 0.00 | 0.00 | 0.00 | 62 | 1014.6 |
| 20260506235439 | 38 | 325 | 1.7 | 4.3 | 0.00 | 0.00 | 0.00 | 61 | 1014.4 |
| 20260506234241 | 38 | 325 | 1.7 | 4.3 | 0.00 | 0.00 | 0.00 | 61 | 1014.4 |
| 20260506232502 | 38 | 254 | 3.5 | 3.5 | 0.00 | 0.00 | 0.00 | 57 | 1014.4 |
| 20260506231002 | 38 | 26 | 1.7 | 2.6 | 0.00 | 0.00 | 0.00 | 58 | 1014.3 |
| 20260506230847 | 37 | 202 | 0.0 | 1.7 | 0.00 | 0.00 | 0.00 | 63 | 1014.2 |
| 20260506225458 | 37 | 202 | 0.0 | 1.7 | 0.00 | 0.00 | 0.00 | 63 | 1014.2 |
| 20260506223947 | 38 | 99 | 0.0 | 3.5 | 0.00 | 0.00 | 0.00 | 59 | 1014.1 |
| 20260506223135 | 39 | 327 | 1.7 | 2.6 | 0.00 | 0.00 | 0.00 | 58 | 1014.0 |
| 20260506222430 | 39 | 327 | 1.7 | 2.6 | 0.00 | 0.00 | 0.00 | 58 | 1014.0 |
| 20260506221629 | 39 | 301 | 0.9 | 1.7 | 0.00 | 0.00 | 0.00 | 57 | 1013.8 |
| 20260506220928 | 39 | 301 | 0.9 | 1.7 | 0.00 | 0.00 | 0.00 | 57 | 1013.8 |
| 20260506220109 | 39 | 146 | 0.0 | 1.7 | 0.00 | 0.00 | 0.00 | 57 | 1013.6 |
| 20260506215402 | 39 | 146 | 0.0 | 1.7 | 0.00 | 0.00 | 0.00 | 57 | 1013.6 |
| 20260506214624 | 39 | 44 | 0.0 | 3.5 | 0.00 | 0.00 | 0.00 | 57 | 1013.5 |
| 20260506213901 | 39 | 44 | 0.0 | 3.5 | 0.00 | 0.00 | 0.00 | 57 | 1013.5 |
| 20260506212353 | 40 | 119 | 1.7 | 2.6 | 0.00 | 0.00 | 0.00 | 55 | 1013.4 |
| 20260506211552 | 42 | 230 | 0.0 | 2.6 | 0.00 | 0.00 | 0.00 | 50 | 1013.3 |
| 20260506210844 | 42 | 230 | 0.0 | 2.6 | 0.00 | 0.00 | 0.00 | 50 | 1013.3 |
| 20260506205333 | 42 | 296 | 0.0 | 2.6 | 0.00 | 0.00 | 0.00 | 49 | 1013.1 |
| 20260506203830 | 42 | 224 | 0.0 | 1.7 | 0.00 | 0.00 | 0.00 | 51 | 1013.0 |
| 20260506203242 | 41 | 55 | 0.0 | 0.9 | 0.00 | 0.00 | 0.00 | 52 | 1012.9 |
| 20260506203041 | 41 | 55 | 0.0 | 0.9 | 0.00 | 0.00 | 0.00 | 52 | 1012.9 |
| 20260506200831 | 43 | 50 | 0.0 | 2.6 | 0.00 | 0.00 | 0.00 | 47 | 1012.9 |
| 20260506200244 | 45 | 212 | 2.6 | 3.5 | 0.00 | 0.00 | 0.00 | 40 | 1012.7 |
| 20260506200033 | 45 | 212 | 2.6 | 3.5 | 0.00 | 0.00 | 0.00 | 40 | 1012.7 |
| 20260506193829 | 46 | 252 | 1.7 | 4.3 | 0.00 | 0.00 | 0.00 | 39 | 1012.4 |
| 20260506193717 | 47 | 243 | 1.7 | 7.0 | 0.00 | 0.00 | 0.00 | 37 | 1012.3 |
| 20260506192305 | 47 | 243 | 1.7 | 7.0 | 0.00 | 0.00 | 0.00 | 37 | 1012.3 |
| 20260506190801 | 48 | 278 | 2.6 | 7.0 | 0.00 | 0.00 | 0.00 | 35 | 1012.2 |
| 20260506190007 | 49 | 322 | 1.7 | 7.8 | 0.00 | 0.00 | 0.00 | 35 | 1011.9 |
| 20260506185306 | 49 | 322 | 1.7 | 7.8 | 0.00 | 0.00 | 0.00 | 35 | 1011.9 |
| 20260506183801 | 50 | 261 | 1.7 | 11.3 | 0.00 | 0.00 | 0.00 | 35 | 1011.8 |
| 20260506182957 | 51 | 337 | 8.7 | 9.6 | 0.00 | 0.00 | 0.00 | 33 | 1011.5 |
| 20260506182301 | 51 | 337 | 8.7 | 9.6 | 0.00 | 0.00 | 0.00 | 33 | 1011.5 |
| 20260506181513 | 53 | 354 | 3.5 | 7.0 | 0.00 | 0.00 | 0.00 | 30 | 1011.3 |
| 20260506180751 | 53 | 354 | 3.5 | 7.0 | 0.00 | 0.00 | 0.00 | 30 | 1011.3 |
| 20260506175229 | 54 | 347 | 2.6 | 6.1 | 0.00 | 0.00 | 0.00 | 29 | 1011.2 |
| 20260506173729 | 55 | 260 | 1.7 | 7.8 | 0.00 | 0.00 | 0.00 | 29 | 1011.0 |
| 20260506172231 | 55 | 322 | 1.7 | 7.0 | 0.00 | 0.00 | 0.00 | 30 | 1010.8 |
| 20260506172119 | 57 | 258 | 1.7 | 8.7 | 0.00 | 0.00 | 0.00 | 28 | 1010.8 |
| 20260506170728 | 57 | 258 | 1.7 | 8.7 | 0.00 | 0.00 | 0.00 | 28 | 1010.8 |
| 20260506165925 | 57 | 79 | 1.7 | 9.6 | 0.00 | 0.00 | 0.00 | 28 | 1010.8 |
| 20260506165441 | 57 | 79 | 1.7 | 9.6 | 0.00 | 0.00 | 0.00 | 28 | 1010.8 |
| 20260506164431 | 56 | 245 | 8.7 | 9.6 | 0.00 | 0.00 | 0.00 | 27 | 1010.7 |
| 20260506163729 | 56 | 245 | 8.7 | 9.6 | 0.00 | 0.00 | 0.00 | 27 | 1010.7 |
| 20260506162933 | 58 | 318 | 3.5 | 10.4 | 0.00 | 0.00 | 0.00 | 28 | 1010.8 |
| 20260506162441 | 58 | 318 | 3.5 | 10.4 | 0.00 | 0.00 | 0.00 | 28 | 1010.8 |
| 20260506160724 | 57 | 250 | 4.3 | 7.8 | 0.00 | 0.00 | 0.00 | 28 | 1010.8 |
| 20260506155202 | 58 | 296 | 3.5 | 7.8 | 0.00 | 0.00 | 0.00 | 28 | 1010.6 |
| 20260506153653 | 58 | 275 | 1.7 | 7.0 | 0.00 | 0.00 | 0.00 | 28 | 1010.5 |
| 20260506152717 | 60 | 34 | 0.0 | 5.2 | 0.00 | 0.00 | 0.00 | 28 | 1010.7 |
| 20260506152243 | 57 | 291 | 3.5 | 12.2 | 0.00 | 0.00 | 0.00 | 28 | 1010.6 |
| 20260506150631 | 60 | 34 | 0.0 | 5.2 | 0.00 | 0.00 | 0.00 | 28 | 1010.7 |
| 20260506145122 | 58 | 102 | 1.7 | 6.1 | 0.00 | 0.00 | 0.00 | 32 | 1010.7 |
| 20260506144259 | 57 | 3 | 1.7 | 6.1 | 0.00 | 0.00 | 0.00 | 28 | 1010.7 |
| 20260506143602 | 57 | 3 | 1.7 | 6.1 | 0.00 | 0.00 | 0.00 | 28 | 1010.7 |
| 20260506142102 | 58 | 354 | 4.3 | 5.2 | 0.00 | 0.00 | 0.00 | 30 | 1010.9 |
| 20260506140555 | 57 | 165 | 3.5 | 4.3 | 0.00 | 0.00 | 0.00 | 28 | 1011.1 |
| 20260506135742 | 56 | 171 | 3.5 | 4.3 | 0.00 | 0.00 | 0.00 | 30 | 1011.2 |
| 20260506135050 | 56 | 171 | 3.5 | 4.3 | 0.00 | 0.00 | 0.00 | 30 | 1011.2 |
| 20260506133531 | 57 | 325 | 0.0 | 6.1 | 0.00 | 0.00 | 0.00 | 32 | 1011.3 |
| 20260506132032 | 56 | 253 | 2.6 | 5.2 | 0.00 | 0.00 | 0.00 | 30 | 1011.3 |
| 20260506131201 | 56 | 297 | 0.0 | 5.2 | 0.00 | 0.00 | 0.00 | 29 | 1011.4 |
| 20260506130713 | 56 | 297 | 0.0 | 5.2 | 0.00 | 0.00 | 0.00 | 29 | 1011.4 |
| 20260506125010 | 56 | 139 | 0.9 | 7.0 | 0.00 | 0.00 | 0.00 | 33 | 1011.5 |
| 20260506124213 | 55 | 22 | 3.5 | 6.1 | 0.00 | 0.00 | 0.00 | 35 | 1011.5 |
| 20260506123707 | 55 | 22 | 3.5 | 6.1 | 0.00 | 0.00 | 0.00 | 35 | 1011.5 |
| 20260506122638 | 55 | 20 | 3.5 | 5.2 | 0.00 | 0.00 | 0.00 | 33 | 1011.7 |
| 20260506121938 | 55 | 20 | 3.5 | 5.2 | 0.00 | 0.00 | 0.00 | 33 | 1011.7 |
| 20260506121139 | 54 | 92 | 2.6 | 5.2 | 0.00 | 0.00 | 0.00 | 35 | 1011.7 |
| 20260506120430 | 54 | 92 | 2.6 | 5.2 | 0.00 | 0.00 | 0.00 | 35 | 1011.7 |
| 20260506114930 | 54 | 6 | 1.7 | 7.8 | 0.00 | 0.00 | 0.00 | 33 | 1011.9 |
| 20260506113429 | 54 | 4 | 1.7 | 4.3 | 0.00 | 0.00 | 0.00 | 32 | 1012.0 |
| 20260506112636 | 54 | 125 | 0.9 | 6.1 | 0.00 | 0.00 | 0.00 | 35 | 1012.2 |
| 20260506111930 | 54 | 125 | 0.9 | 6.1 | 0.00 | 0.00 | 0.00 | 35 | 1012.2 |
| 20260506110430 | 53 | 82 | 2.6 | 7.0 | 0.00 | 0.00 | 0.00 | 38 | 1012.3 |
| 20260506105646 | 53 | 12 | 1.7 | 6.1 | 0.00 | 0.00 | 0.00 | 35 | 1012.4 |
| 20260506105140 | 53 | 12 | 1.7 | 6.1 | 0.00 | 0.00 | 0.00 | 35 | 1012.4 |
| 20260506103431 | 53 | 184 | 2.6 | 5.2 | 0.00 | 0.00 | 0.00 | 36 | 1012.5 |
| 20260506101932 | 53 | 151 | 0.9 | 6.1 | 0.00 | 0.00 | 0.00 | 39 | 1012.6 |
| 20260506101115 | 51 | 173 | 3.5 | 7.0 | 0.00 | 0.00 | 0.00 | 38 | 1012.8 |
| 20260506100403 | 51 | 173 | 3.5 | 7.0 | 0.00 | 0.00 | 0.00 | 38 | 1012.8 |